Weather History for LIRK - July, 2013

Change the Weather History Date:

Thursday, July 4, 2013

  Actual Average Record
Temperature  
Mean Temperature 50 °F -  
Max Temperature 54 °F 60 °F 71 °F (1999)
Min Temperature 46 °F 50 °F 46 °F (1998)
Degree Days  
Heating Degree Days 15    
Moisture  
Dew Point 49 °F    
Average Humidity 92    
Maximum Humidity 100    
Minimum Humidity 60    
Precipitation  
Precipitation 0.00 in - - ()
Sea Level Pressure  
Sea Level Pressure 30.22 in    
Wind  
Wind Speed 12 mph ()    
Max Wind Speed 22 mph    
Max Gust Speed -    
Visibility 8.2 miles    
Events Rain    
Averages and records for this station are not official NWS values.
T = Trace of Precipitation, MM = Missing Value Source: Averaged Metar Reports

Daily Weather History Graph

Daily Weather History Graph

Search for Another Location

Airport or City:

Trip Planner

Search our weather history database for the weather conditions in past years. The results will help you decide how hot, cold, wet, or windy it might be!

Date:

Astronomy

Jul. 04, 2013 Rise Set
Actual Time 5:36 AM CEST 8:48 PM CEST
Civil Twilight 5:01 AM CEST 9:22 PM CEST
Nautical Twilight 4:17 AM CEST 10:07 PM CEST
Astronomical Twilight 3:23 AM CEST 11:00 PM CEST
Moon 2:43 AM CEST 5:36 PM CEST
Length of Visible Light 16h 21m
Length of Day
15h 12m
Waning Crescent, 13% of the Moon is Illuminated
Jul 4
Waning Crescent
Jul 8
New
Jul 16
First Quarter
Jul 22
Full
Jul 29
Last Quarter

Hourly Weather History & Observations

Time (CEST) Temp. Dew Point Humidity Pressure Visibility Wind Dir Wind Speed Gust Speed Precip Events Conditions
12:55 AM 53.6 °F 41.0 °F 62% 30.24 in - North - - N/A   Clear
1:55 AM 53.6 °F 44.6 °F 72% 30.24 in - North - - N/A   Clear
2:00 AM 54 °F 44 °F 60%  in 9 mi WSW 13.8 mph - -  
2:55 AM 53.6 °F 42.8 °F 67% 30.21 in - North - - N/A   Clear
3:55 AM 51.8 °F 44.6 °F 76% 30.21 in - North - - N/A   Clear
4:55 AM 51.8 °F 44.6 °F 76% 30.21 in - North - - N/A   Clear
5:55 AM 51.8 °F 46.4 °F 82% 30.21 in - North - - N/A Rain Light Rain
6:55 AM 50.0 °F 46.4 °F 87% 30.21 in - North - - N/A Rain Light Rain
7:55 AM 46.4 °F 46.4 °F 100% 30.21 in - North - - N/A   Scattered Clouds
8:00 AM 47 °F 47 °F 99%  in 6 mi West 21.9 mph - -   Overcast
8:55 AM 46.4 °F 46.4 °F 100% 30.21 in - North - - N/A   Scattered Clouds
9:55 AM 46.4 °F 46.4 °F 100% 30.21 in - North - - N/A   Scattered Clouds
10:55 AM 48.2 °F 48.2 °F 100% 30.18 in - North - - N/A   Clear
11:55 AM 50.0 °F 50.0 °F 100% 30.21 in - North - - N/A   Partly Cloudy
12:55 PM 50.0 °F 50.0 °F 100% 30.21 in - North - - N/A   Scattered Clouds
1:55 PM 51.8 °F 51.8 °F 100% 30.21 in - North - - N/A   Partly Cloudy
2:00 PM 52 °F 51 °F 96%  in 9 mi West 15.0 mph - -  
2:55 PM 53.6 °F 53.6 °F 100% 30.21 in - North - - N/A   Partly Cloudy
3:55 PM 53.6 °F 53.6 °F 100% 30.21 in - North - - N/A   Scattered Clouds
4:55 PM 51.8 °F 51.8 °F 100% 30.21 in - North - - N/A   Partly Cloudy
5:55 PM 51.8 °F 51.8 °F 100% 30.24 in - North - - N/A   Clear
6:55 PM 51.8 °F 51.8 °F 100% 30.24 in - North - - N/A   Clear
7:55 PM 51.8 °F 51.8 °F 100% 30.24 in - North - - N/A   Clear
8:00 PM 52 °F 51 °F 96%  in 9 mi West 13.8 mph - -  
8:55 PM 51.8 °F 51.8 °F 100% 30.24 in - North - - N/A   Clear
9:55 PM 51.8 °F 51.8 °F 100% 30.24 in - North - - N/A   Clear
10:55 PM 51.8 °F 51.8 °F 100% 30.27 in - North - - N/A   Clear
11:55 PM 50.0 °F 50.0 °F 100% 30.27 in - North - - N/A   Clear